Regional Weather Roundup
Issued by NWS Upton, NY

Current Version | Previous Version | Text Only | Print | Product List | Glossary On
Versions: 1 2 3 4 5 6 7 8 9 10 11 12 13 14 15 16 17 18 19 20 21 22 23 24 25 26 27 28 29 30 31 32 33 34 35 36 37 38 39 40 41 42 43 44 45 46 47 48 49 50
000
ASUS41 KOKX 060104
RWROKX

REGIONAL WEATHER ROUNDUP
NATIONAL WEATHER SERVICE NEW YORK NY
800 PM EST FRI FEB 05 2016

NOTE: "FAIR" INDICATES FEW OR NO CLOUDS BELOW 12,000 FEET WITH NO
SIGNIFICANT WEATHER AND/OR OBSTRUCTIONS TO VISIBILITY.

NYZ071-072-176-178-NJZ106-104-060200-
NEW YORK CITY METRO AREA


CITY           SKY/WX    TMP DP  RH WIND       PRES   REMARKS
CENTRAL PARK   CLEAR     35  14  42 NW8G21    30.30R WCI  29
LAGUARDIA APRT PTCLDY    37  17  44 NW17G29   30.28R WCI  27
KENNEDY INTL   PTCLDY    36  14  40 NW18G26   30.28R WCI  26
NEWARK/LIBERTY PTCLDY    35  15  44 NW8       30.30R WCI  29
BRNX BOT. GARD   N/A     34  16  47 N15       30.26S WCI  24
TETERBORO      CLEAR     34  15  46 NW12G17   30.28R WCI  25
$$

NYZ177-179-078>081-060200-
LONG ISLAND NEW YORK

CITY           SKY/WX    TMP DP  RH WIND       PRES   REMARKS
FARMINGDALE    PTCLDY    34  18  52 NW5       30.27R WCI  30
ISLIP          CLEAR     31  18  58 W7        30.23R WCI  24
SHIRLEY        CLEAR     31  20  63 NW9       30.24R WCI  23
RIVERHEAD        N/A     34  16  47 W7        30.25R WCI  28
WESTHAMPTON    CLEAR     31  20  63 NW12      30.23R WCI  22
EAST HAMPTON   FAIR      32  22  65 NW8       30.19R WCI  25
MONTAUK POINT    N/A     36  20  52 NW20G28   30.19R WCI  25
$$

NYZ052-065-067-060200-
HUDSON VALLEY

CITY           SKY/WX    TMP DP  RH WIND       PRES   REMARKS
WHITE PLAINS   PTCLDY    33  12  41 NW15G21   30.24R WCI  23
NEWBURGH       CLEAR     32  16  51 NW16      30.27R WCI  21
MONTGOMERY     PTCLDY    32  13  45 NW5       30.27R WCI  27
POUGHKEEPSIE   PTCLDY    35   9  33 NW10      30.26R WCI  27
ALBANY         CLEAR     30  14  51 W13       30.27R WCI  20
$$

NJZ001-105-106-008-010-013-015-019>022-104-060200-
NEW JERSEY

CITY           SKY/WX    TMP DP  RH WIND       PRES   REMARKS
NEWARK/LIBERTY PTCLDY    35  15  44 NW8       30.30R WCI  29
TETERBORO      CLEAR     34  15  46 NW12G17   30.28R WCI  25
CALDWELL       CLEAR     34  13  41 NW7       30.30R WCI  28
MORRISTOWN     CLEAR     34  16  47 N7        30.31R WCI  28
SOMERVILLE     CLEAR     34  14  43 NW7       30.30R WCI  28
SUSSEX         CLEAR     31  13  47 VRB3      30.29R
ANDOVER          N/A     31  13  47 VRB6      30.30R WCI  25
TRENTON        CLEAR     35  15  44 NW9       30.30S WCI  28
MILLVILLE      CLEAR     36  24  62 NW6       30.33R WCI  31
ATLANTIC CITY  CLEAR     31  23  72 NW8       30.32R WCI  23
WRIGHTSTOWN    CLEAR     34  19  54 NW12      30.29R WCI  25
TOMS RIVER     CLEAR     34  18  51 NW9       30.31R WCI  26
BELMAR         CLEAR     34  14  44 NW12      30.29R WCI  25
$$

PAZ047>061-062-071-060200-
EASTERN PENNSYLVANIA

CITY           SKY/WX    TMP DP  RH WIND       PRES   REMARKS
PHILADELPHIA   CLEAR     37  16  42 NW8       30.33S WCI  31
ALLENTOWN      CLEAR     33  15  47 NW5       30.32R WCI  29
SCRANTON       CLEAR     29  15  56 N7        30.30R WCI  22
$$

CTZ002-004>006-009-010-012-RIZ004-006-007-MAZ004-011-015-060200-
SOUTHERN NEW ENGLAND
 IN CT

CITY           SKY/WX    TMP DP  RH WIND       PRES   REMARKS
BRADLEY INTL   CLEAR     31  14  49 NW13      30.20R WCI  21
HARTFORD       CLEAR     32  16  51 NW6       30.22R WCI  26
DANBURY        CLEAR     33   8  35 NW6       30.24R WCI  28
WTRBRY/OXFORD  CLEAR     32   7  34 NW12G23   30.21R WCI  23
BRIDGEPORT     CLEAR     28  17  63 W3        30.25R
MERIDEN        CLEAR     33  14  45 NW13      30.23R WCI  24
NEW HAVEN      CLEAR     34  15  46 NW10      30.23R WCI  26
CHESTER        FAIR      32  18  55 NW10G20   30.19R WCI  24
GROTON         CLEAR     30  22  72 NW9       30.19R WCI  22
WILLIMANTIC    NOT AVBL

 IN RI

CITY           SKY/WX    TMP DP  RH WIND       PRES   REMARKS
PROVIDENCE     PTCLDY    29  21  72 W8        30.16R WCI  21
BLOCK ISLAND   CLEAR     34  25  69 NW12G20   30.16R WCI  25
WESTERLY       CLEAR     28  23  81 W5        30.18R WCI  23

 IN MA

CITY           SKY/WX    TMP DP  RH WIND       PRES   REMARKS
BOSTON         PTCLDY    29  18  63 NW17G28   30.14R WCI  17
WORCESTER      CLEAR     24  16  71 NW20      30.12R WCI  10
WESTFIELD      CLEAR     31  12  45 N12G17    30.20R WCI  22
PROVINCETOWN   MOCLDY    30  26  85 NW31      30.11R WCI  15
NANTUCKET      CLOUDY    33  29  85 NW22G35   30.10R WCI  21
$$

ANZ330-335-338-340-345-350-353-355-060200-
COASTAL MARINE OBSERVATIONS


STATION/POSITION TIME  SKY/WX   TEMP    WIND        PRES    VSBY  WAVE
                                AIR SEA DIR/SP/G                  HT/PER
                 (UTC)          (F)     (DEG/KT/KT) (MB)    (MI)  (FT/S)
NY HARB ENTRANCE 2350            40 44  310/ 23/ 31 1023.5          4/ 5
4S FIRE IS       NOT AVBL
20S FIRE ISLAND  2350            40 46  310/ 27/ 31 1022.5          6/ 5
GREAT SOUTH BAY  NOT AVBL
23SW MTP         2350            39 47  310/ 23/ 29 1020.7          5/ 4
HUDSON CANYON    2350            43 51              1021.8         11/ 8
KINGS POINT      NOT AVBL
EXECUTION ROCKS  NOT AVBL
CENTRAL LI SOUND 0000            38     310/ 16/ 19   N/A           2/ 4
EASTERN LI SOUND 0000            36 42  300/ 16/ 19   N/A
ROBBINS REEF     NOT AVBL
$$


>>>>>>>>>>>>>>>>>>>>>>>>>>>> KEY <<<<<<<<<<<<<<<<<<<<<<<<<<<
>                                                          <
>     SKY/WX - SKY CONDITION/PRESENT WEATHER               <
>     TMP    - TEMPERATURE IN FAHRENHEIT                   <
>     DP     - DEWPOINT IN FAHRENHEIT                      <
>     RH     - RELATIVE HUMIDITY IN PERCENT                <
>     WIND   - DIRECTION AND SPEED IN MPH                  <
>     PRES   - MEAN SEA LEVEL PRESSURE IN INCHES OF HG     <
>     WCI    - WIND CHILL INDEX                            <
>     VSB    - VISIBILITY IN MILES                         <
>     HX     - HEAT INDEX                                  <
>     TC     - TEMPERATURE IN CELSIUS                      <
>     VRB    - VARIABLE WIND DIRECTION                     <
>                                                          <
>>>>>>>>>>>>>>>>>>>>>>>>>>>> KEY <<<<<<<<<<<<<<<<<<<<<<<<<<<





USA.gov is the U.S. government's official web portal to all federal, state and local government web resources and services.